Theta_e
334 334 332 334 335 337 340 342 344 344 348 344 338 340 338 337 339 341 343 340 339 338 339 339 340 335 335 332 333 332 330 327
329 329 332 335 337 338 339 339 340 343 341 341 340 334 332 333 339 339 339 339 340 339 337 339 338 336 334 334 331 330 328 326
327 329 332 334 333 335 336 337 338 338 339 335 333 331 332 335 337 338 338 337 338 337 337 335 334 333 331 330 324 323 323 326
327 328 328 329 332 334 335 335 336 337 336 335 333 336 336 334 334 335 335 334 332 332 328 331 328 329 323 322 320 322 325 325
323 324 325 326 331 333 334 334 336 336 335 332 332 328 328 327 330 330 332 331 329 328 325 325 324 323 323 322 323 323 324 322
322 324 324 325 326 325 327 326 326 328 329 329 328 328 327 326 328 325 329 324 326 325 326 324 326 324 322 322 321 317 318 319
320 319 320 321 321 322 322 326 325 328 330 329 326 325 325 323 324 321 321 321 321 322 324 325 324 321 320 318 319 315 314 315
317 318 320 322 324 325 324 324 326 325 324 324 323 322 325 329 326 326 322 322 321 322 322 324 324 324 320 319 316 317 314 314
320 321 324 324 325 324 324 324 325 323 320 318 317 316 319 321 322 324 324 322 322 323 321 323 326 324 325 325 319 314 316 319
321 322 322 323 323 323 323 324 324 322 318 319 318 318 318 320 319 320 321 320 320 320 321 321 323 323 326 324 322 315 313 317
320 320 320 321 321 322 323 324 324 322 321 317 317 317 317 315 316 316 318 320 320 321 321 321 322 322 321 325 324 317 315 316
317 318 319 320 320 322 323 324 323 320 321 318 318 313 311 314 314 315 317 319 319 320 320 321 322 320 321 324 323 321 319 314
316 317 318 319 320 321 322 321 320 319 320 319 316 315 314 313 314 316 317 319 318 319 320 320 321 319 321 321 321 321 319 318
316 317 318 318 319 319 318 316 317 318 317 317 317 315 315 313 314 313 312 313 315 318 318 319 321 320 320 320 321 321 321 318
313 316 317 317 316 315 312 315 315 316 316 316 315 316 316 315 314 312 313 312 313 317 319 319 319 319 319 320 320 320 319 317
311 316 316 315 314 312 311 314 313 314 314 315 315 316 313 313 314 313 313 314 316 318 319 318 318 319 319 320 318 318 319 318
312 315 313 307 312 312 313 313 313 313 314 313 313 313 314 313 314 315 313 315 315 317 317 317 317 318 318 316 314 317 319 320
313 312 310 309 311 312 312 311 310 311 312 312 313 312 311 310 310 311 312 313 315 315 315 316 316 316 316 315 313 310 310 312
308 305 307 311 311 310 310 311 309 311 311 312 311 309 309 310 309 309 311 313 313 313 313 312 313 312 314 312 308 307 307 308
307 308 309 309 309 308 309 310 310 311 310 308 307 310 309 308 307 307 307 307 309 311 310 307 305 307 311 311 309 309 309 310
Wind_Speed
11 11 11 9 7 6 6 6 5 3 7 6 5 4 3 4 4 5 2 3 5 6 4 7 6 9 8 9 6 5 7 6
14 10 11 12 12 13 12 11 9 9 6 5 3 2 2 3 2 5 4 5 3 5 5 3 4 4 4 3 6 6 7 7
12 11 11 12 13 12 14 13 12 10 7 6 5 5 5 5 3 7 6 5 3 4 3 5 5 5 5 7 7 6 9 7
12 13 12 12 11 12 12 13 13 12 11 11 8 7 5 5 6 8 8 7 7 5 7 5 6 6 5 5 7 6 8 7
14 11 11 10 11 10 9 10 11 10 10 9 7 5 7 8 8 9 9 8 7 6 3 3 2 2 4 4 7 9 6 6
11 10 11 9 10 12 12 11 12 12 10 9 7 7 6 5 6 6 9 8 8 5 4 4 4 3 1 3 4 5 8 6
11 10 9 10 10 10 10 10 11 10 10 7 4 5 4 2 2 2 5 4 6 4 6 4 2 1 2 2 4 3 3 3
8 8 8 9 9 10 12 11 11 8 7 5 6 6 4 2 3 4 3 4 4 3 5 6 4 6 5 4 4 2 2 6
8 8 7 8 9 9 11 11 10 8 8 9 8 9 6 6 4 6 6 7 7 6 7 7 7 6 9 7 6 6 7 4
8 8 7 8 9 10 10 10 9 8 9 7 7 7 7 6 5 7 6 9 8 8 7 9 8 8 9 9 7 3 2 7
7 8 7 9 9 9 9 9 10 9 10 8 8 8 7 6 8 7 9 7 8 8 8 8 9 9 7 7 7 9 7 6
6 6 7 8 8 8 9 9 9 9 10 10 10 8 9 7 7 8 10 9 8 9 7 8 8 8 6 6 7 8 7 6
8 8 8 6 7 8 8 9 9 9 10 10 10 11 10 9 9 11 9 6 5 7 8 8 8 7 7 6 6 6 5 6
7 5 4 5 6 8 8 9 9 9 11 10 10 12 11 10 10 10 9 9 5 7 9 8 7 6 5 5 5 6 6 5
10 8 9 8 9 10 9 10 11 12 12 11 12 12 12 12 12 10 12 9 8 7 9 7 6 7 7 7 6 5 5 5
9 8 9 11 10 11 11 12 14 13 12 12 12 12 9 9 9 9 9 9 9 9 8 7 7 6 6 7 6 5 4 3
7 8 9 8 10 9 11 12 13 13 14 11 11 9 11 11 13 11 10 9 8 9 8 8 8 8 9 8 8 8 4 2
5 8 8 7 7 10 9 12 14 15 13 10 10 12 12 11 11 12 12 11 11 9 8 8 7 8 9 8 9 7 6 5
7 8 6 8 11 11 12 13 11 11 11 12 12 11 9 9 9 11 11 12 8 9 10 9 9 9 8 8 7 5 4 3
3 7 10 12 13 13 11 9 11 10 10 11 9 12 13 11 10 8 10 12 8 7 6 7 7 6 6 8 4 5 6 6
Wind_Direction
82 81 85 77 62 48 11 44 23 351 119 127 139 245 218 190 215 245 208 249 219 226 227 187 191 184 218 201 217 323 353 338
74 73 50 60 48 43 33 36 29 24 12 35 72 243 244 251 63 306 270 257 232 284 277 283 252 244 337 294 327 358 319 312
83 80 60 60 57 49 49 42 38 28 34 40 39 15 18 352 13 31 355 314 336 293 3 290 337 343 358 5 2 329 294 288
83 67 62 57 61 52 48 52 49 49 44 35 33 23 19 35 48 30 35 30 9 7 21 1 36 4 359 353 311 273 298 308
69 70 66 50 44 53 43 48 50 44 44 52 55 55 53 25 10 23 18 9 9 349 338 323 348 28 320 294 304 283 285 308
72 70 64 53 54 48 39 40 44 37 31 24 37 41 33 35 25 34 11 14 11 351 288 268 265 241 285 256 283 329 314 317
69 65 67 63 61 59 54 50 43 36 37 38 38 37 39 52 18 350 351 349 343 333 312 295 310 261 205 254 275 297 276 271
87 96 101 89 81 69 58 46 33 34 23 12 8 3 351 43 355 322 290 269 279 256 259 267 262 216 225 201 249 277 287 285
117 127 118 111 99 76 53 45 32 13 11 355 350 345 337 331 345 346 327 339 322 298 284 263 234 244 235 214 216 226 239 298
86 79 73 72 67 53 42 34 28 17 6 355 346 341 338 328 360 322 332 330 322 305 323 306 295 285 254 246 217 240 264 242
91 82 58 44 43 35 30 22 19 25 359 357 357 335 341 351 345 333 357 315 313 312 312 302 306 293 310 253 216 203 253 220
111 74 45 34 24 21 17 17 14 11 3 349 348 334 338 338 322 1 309 328 317 305 307 304 301 311 297 281 239 237 242 279
58 40 23 26 18 12 21 11 3 2 348 344 333 348 333 333 333 336 310 317 308 321 314 302 297 306 320 296 262 251 269 275
39 22 358 9 8 15 6 360 351 345 339 338 342 334 330 331 340 312 340 319 358 323 327 325 323 315 310 310 300 274 258 287
311 315 357 11 15 9 347 353 338 342 339 341 336 332 322 322 335 334 324 330 335 333 332 337 326 328 336 339 324 285 268 270
273 333 353 352 0 3 330 340 338 341 343 335 331 336 337 331 334 333 331 334 326 332 333 342 343 348 354 346 335 321 316 249
309 336 14 360 353 317 343 345 341 355 341 337 344 342 336 345 342 334 336 333 330 342 347 4 13 17 26 32 23 357 333 354
343 16 19 339 312 338 354 356 5 354 354 354 357 359 359 349 333 324 325 329 336 343 10 14 23 33 43 23 48 15 30 26
33 38 298 333 339 349 20 10 340 349 357 1 356 355 323 324 341 350 341 333 348 17 30 26 26 23 30 53 41 21 29 4
29 336 348 352 347 11 5 343 347 355 3 5 343 356 3 358 356 3 13 5 351 11 40 41 17 6 2 358 28 16 2 344